EW9467 Weather Reports


time (UTC)temp
F
wind
direction
speed
knots
gust
knots
rain 1hr
in
rain 24hr
in
rain mn
in
humidity
%
barometer
mb
20260905233045 88 319 0.9 7.0 0.00 0.00 0.00 67 1009.7
20260905232546 88 209 0.9 7.0 0.00 0.00 0.00 67 1009.1
20260905232044 88 199 0.9 7.0 0.00 0.00 0.00 67 1009.0
20260905231544 88 267 1.7 7.0 0.00 0.00 0.00 68 1009.2
20260905231042 88 268 1.7 7.0 0.00 0.00 0.00 68 1009.1
20260905230043 89 223 1.7 7.8 0.00 0.00 0.00 66 1009.2
20260905225540 89 280 1.7 7.8 0.00 0.00 0.00 66 1009.2
20260905225041 89 291 0.9 6.1 0.00 0.00 0.00 66 1009.2
20260905224538 89 286 1.7 7.0 0.00 0.00 0.00 66 1009.1
20260905224038 90 242 2.6 9.6 0.00 0.00 0.00 65 1009.2
20260905223536 90 236 2.6 9.6 0.00 0.00 0.00 64 1009.3
20260905223038 91 254 1.7 7.0 0.00 0.00 0.00 63 1009.2
20260905222537 91 249 1.7 8.7 0.00 0.00 0.00 63 1009.1
20260905222038 92 271 2.6 8.7 0.00 0.00 0.00 62 1008.9
20260905221536 92 240 3.5 11.3 0.00 0.00 0.00 61 1009.0
20260905221036 92 271 3.5 11.3 0.00 0.00 0.00 59 1009.0
20260905220536 94 230 1.7 9.6 0.00 0.00 0.00 58 1008.9
20260905220036 93 218 2.6 9.6 0.00 0.00 0.00 60 1008.7
20260905215537 94 236 3.5 11.3 0.00 0.00 0.00 58 1008.7
20260905215036 94 268 2.6 11.3 0.00 0.00 0.00 58 1008.6
20260905214536 94 216 2.6 8.7 0.00 0.00 0.00 57 1008.6
20260905214035 94 246 3.5 8.7 0.00 0.00 0.00 57 1008.6
20260905213536 94 270 3.5 9.6 0.00 0.00 0.00 58 1008.7
20260905213037 94 272 3.5 9.6 0.00 0.00 0.00 57 1008.6
20260905212034 94 250 1.7 7.8 0.00 0.00 0.00 57 1008.7
20260905211534 94 233 0.9 8.7 0.00 0.00 0.00 58 1008.7
20260905211033 94 211 0.9 8.7 0.00 0.00 0.00 57 1008.7
20260905210535 95 197 2.6 9.6 0.00 0.00 0.00 56 1008.6
20260905210034 96 264 2.6 9.6 0.00 0.00 0.00 53 1008.6
20260905205535 98 215 0.9 9.6 0.00 0.00 0.00 50 1008.6
20260905205035 99 133 0.0 4.3 0.00 0.00 0.00 44 1008.6
20260905204534 99 142 0.9 5.2 0.00 0.00 0.00 42 1008.7
20260905204034 100 205 0.9 5.2 0.00 0.00 0.00 42 1008.8
20260905203535 99 272 0.9 5.2 0.00 0.00 0.00 43 1008.8
20260905203034 99 272 1.7 6.1 0.00 0.00 0.00 43 1008.9
20260905202533 100 254 0.9 6.1 0.00 0.00 0.00 42 1008.9
20260905202034 100 261 0.0 3.5 0.00 0.00 0.00 42 1009.0
20260905201533 99 195 0.9 6.1 0.00 0.00 0.00 45 1009.0
20260905201032 99 80 0.9 6.1 0.00 0.00 0.00 43 1009.1
20260905200531 100 129 0.9 4.3 0.00 0.00 0.00 43 1009.5
20260905200032 100 145 0.9 4.3 0.00 0.00 0.00 43 1009.5
20260905195032 100 294 0.0 0.9 0.00 0.00 0.00 44 1009.7
20260905194530 99 269 0.0 5.2 0.00 0.00 0.00 44 1009.8
20260905194030 100 266 0.0 5.2 0.00 0.00 0.00 42 1009.8
20260905193530 100 249 0.0 2.6 0.00 0.00 0.00 42 1009.9
20260905193028 100 250 0.9 2.6 0.00 0.00 0.00 41 1010.0
20260905192528 100 250 0.0 2.6 0.00 0.00 0.00 41 1010.0
20260905192027 100 192 0.0 0.9 0.00 0.00 0.00 43 1010.0
20260905191528 99 109 0.0 0.9 0.00 0.00 0.00 44 1010.0
20260905191027 99 88 0.0 2.6 0.00 0.00 0.00 43 1010.0
20260905190527 99 89 0.0 2.6 0.00 0.00 0.00 42 1010.1
20260905190028 99 148 0.0 2.6 0.00 0.00 0.00 43 1010.1
20260905185028 98 44 0.0 1.7 0.00 0.00 0.00 44 1010.0
20260905184528 98 46 0.0 0.0 0.00 0.00 0.00 45 1010.1
20260905184028 97 45 0.0 0.0 0.00 0.00 0.00 45 1010.2
20260905183027 98 139 0.0 0.9 0.00 0.00 0.00 46 1010.5
20260905182528 98 142 0.0 0.9 0.00 0.00 0.00 45 1010.6
20260905182028 98 174 0.9 6.1 0.00 0.00 0.00 45 1010.7
20260905181528 98 215 0.9 6.1 0.00 0.00 0.00 45 1010.7
20260905181026 98 12 0.0 6.1 0.00 0.00 0.00 44 1010.7
20260905180026 99 125 0.0 4.3 0.00 0.00 0.00 43 1010.8
20260905175525 98 92 1.7 7.8 0.00 0.00 0.00 44 1010.8
20260905175026 98 136 1.7 7.8 0.00 0.00 0.00 45 1010.9
20260905174525 98 141 0.9 4.3 0.00 0.00 0.00 46 1010.9
20260905174026 98 88 0.0 3.5 0.00 0.00 0.00 45 1011.0
20260905173526 98 146 0.0 1.7 0.00 0.00 0.00 48 1011.1
20260905173024 97 134 0.0 2.6 0.00 0.00 0.00 51 1011.2
20260905172525 96 254 0.9 5.2 0.00 0.00 0.00 49 1011.3
20260905172024 97 256 0.9 5.2 0.00 0.00 0.00 47 1011.3
20260905171523 96 122 0.9 2.6 0.00 0.00 0.00 51 1011.3
20260905171023 96 81 0.9 6.1 0.00 0.00 0.00 50 1011.4
20260905170523 96 76 0.0 6.1 0.00 0.00 0.00 50 1011.6
20260905170023 96 142 0.0 2.6 0.00 0.00 0.00 48 1011.6
20260905165523 97 80 0.9 3.5 0.00 0.00 0.00 49 1011.7
20260905165023 97 138 0.9 3.5 0.00 0.00 0.00 50 1011.7
20260905164523 96 96 0.9 2.6 0.00 0.00 0.00 51 1011.8
20260905164025 96 101 0.9 2.6 0.00 0.00 0.00 50 1011.9
20260905163523 96 145 0.0 2.6 0.00 0.00 0.00 52 1011.9
20260905163023 96 140 0.0 2.6 0.00 0.00 0.00 51 1012.0
20260905162521 96 314 0.9 2.6 0.00 0.00 0.00 51 1012.2
20260905162021 96 57 0.9 2.6 0.00 0.00 0.00 52 1012.2
20260905161521 96 291 0.9 3.5 0.00 0.00 0.00 52 1012.1
20260905160022 96 355 0.0 1.7 0.00 0.00 0.00 51 1012.3
20260905155521 96 351 0.0 2.6 0.00 0.00 0.00 51 1012.3
20260905154521 96 105 0.0 1.7 0.00 0.00 0.00 52 1012.3
20260905154021 95 119 0.0 2.6 0.00 0.00 0.00 53 1012.3
20260905153520 95 22 0.0 5.2 0.00 0.00 0.00 54 1012.4
20260905152520 95 313 0.0 0.0 0.00 0.00 0.00 53 1012.5
20260905152020 95 34 0.0 0.0 0.00 0.00 0.00 55 1012.5
20260905151016 94 296 0.0 0.0 0.00 0.00 0.00 56 1012.5
20260905150018 93 298 0.0 0.0 0.00 0.00 0.00 56 1012.6
20260905145518 93 25 0.0 0.0 0.00 0.00 0.00 57 1012.6
20260905144516 92 53 0.0 0.0 0.00 0.00 0.00 58 1012.7
20260905144017 91 53 0.0 0.0 0.00 0.00 0.00 61 1012.8
20260905143518 91 318 0.0 0.0 0.00 0.00 0.00 62 1012.8
20260905143017 90 318 0.0 0.0 0.00 0.00 0.00 62 1012.8
20260905142516 90 318 0.0 0.0 0.00 0.00 0.00 62 1012.9
20260905142016 89 318 0.0 0.0 0.00 0.00 0.00 64 1012.9
20260905141518 89 318 0.0 0.0 0.00 0.00 0.00 65 1012.8
20260905141017 89 321 0.0 0.0 0.00 0.00 0.00 67 1012.9
20260905140015 87 316 0.0 0.0 0.00 0.00 0.00 70 1012.9
20260905135515 87 316 0.0 0.0 0.00 0.00 0.00 70 1012.9
20260905135015 86 317 0.0 0.0 0.00 0.00 0.00 72 1012.9
20260905134514 86 315 0.0 0.0 0.00 0.00 0.00 73 1012.9
20260905134014 86 316 0.0 0.0 0.00 0.00 0.00 74 1012.9
20260905133516 85 317 0.0 0.0 0.00 0.00 0.00 75 1013.0
20260905133015 85 317 0.0 0.0 0.00 0.00 0.00 75 1013.0
20260905132515 84 317 0.0 0.0 0.00 0.00 0.00 77 1013.1
20260905132015 83 317 0.0 0.0 0.00 0.00 0.00 78 1013.1
20260905131016 82 133 0.0 0.0 0.00 0.00 0.00 80 1013.2
20260905130514 82 133 0.0 0.0 0.00 0.00 0.00 81 1013.2
20260905130016 81 132 0.0 0.0 0.00 0.00 0.00 83 1013.2
20260905125014 80 133 0.0 0.0 0.00 0.00 0.00 88 1013.1
20260905124514 78 133 0.0 0.0 0.00 0.00 0.00 90 1013.1
20260905124015 77 133 0.0 0.0 0.00 0.00 0.00 92 1013.1
20260905123512 76 133 0.0 0.0 0.00 0.00 0.00 94 1013.2
20260905123011 75 133 0.0 0.0 0.00 0.00 0.00 95 1013.1
20260905122010 74 133 0.0 0.0 0.00 0.00 0.00 95 1013.1
20260905121510 73 133 0.0 0.0 0.00 0.00 0.00 95 1013.1
20260905121010 73 133 0.0 0.0 0.00 0.00 0.00 95 1013.0
20260905120509 73 133 0.0 0.0 0.00 0.00 0.00 95 1012.9
20260905120008 73 133 0.0 0.0 0.00 0.00 0.00 94 1012.8
20260905115509 73 133 0.0 0.0 0.00 0.00 0.00 94 1012.8
20260905115007 73 133 0.0 0.0 0.00 0.00 0.00 94 1012.8
20260905114506 72 133 0.0 0.0 0.00 0.00 0.00 95 1012.8
20260905113506 72 133 0.0 0.0 0.00 0.00 0.00 94 1012.8
20260905113006 72 133 0.0 0.0 0.00 0.00 0.00 94 1012.7
20260905112507 72 133 0.0 0.0 0.00 0.00 0.00 95 1012.6
20260905112006 72 133 0.0 0.0 0.00 0.00 0.00 95 1012.6
20260905111006 72 133 0.0 0.0 0.00 0.00 0.00 95 1012.4
20260905110506 72 133 0.0 0.0 0.00 0.00 0.00 94 1012.4
20260905105004 72 133 0.0 0.0 0.00 0.00 0.00 94 1012.3
20260905104504 72 133 0.0 0.0 0.00 0.00 0.00 94 1012.3
20260905104004 72 133 0.0 0.0 0.00 0.00 0.00 94 1012.4
20260905103504 72 133 0.0 0.0 0.00 0.00 0.00 94 1012.3
20260905103005 72 133 0.0 0.0 0.00 0.00 0.00 94 1012.1
20260905102003 72 133 0.0 0.0 0.00 0.00 0.00 94 1012.2
20260905101503 72 133 0.0 0.0 0.00 0.00 0.00 94 1012.1
20260905101002 72 133 0.0 0.0 0.00 0.00 0.00 94 1012.1
20260905095502 72 133 0.0 0.0 0.00 0.00 0.00 93 1012.3
20260905095002 72 133 0.0 0.0 0.00 0.00 0.00 94 1012.2
20260905094502 72 133 0.0 0.0 0.00 0.00 0.00 94 1012.1
20260905094002 72 133 0.0 0.0 0.00 0.00 0.00 94 1012.1
20260905093502 72 133 0.0 0.0 0.00 0.00 0.00 94 1012.1
20260905093001 72 133 0.0 0.0 0.00 0.00 0.00 93 1012.1
20260905092502 72 133 0.0 0.0 0.00 0.00 0.00 93 1012.1
20260905092000 72 133 0.0 0.0 0.00 0.00 0.00 94 1012.1
20260905091501 73 133 0.0 0.0 0.00 0.00 0.00 93 1012.1
20260905091000 73 133 0.0 0.0 0.00 0.00 0.00 93 1012.1
20260905090500 73 133 0.0 0.0 0.00 0.00 0.00 93 1012.1
20260905090000 73 133 0.0 0.0 0.00 0.00 0.00 93 1012.1
20260905084958 73 133 0.0 0.0 0.00 0.00 0.00 93 1012.0
20260905084459 73 133 0.0 0.0 0.00 0.00 0.00 93 1012.0
20260905083959 73 133 0.0 0.0 0.00 0.00 0.00 93 1012.0
20260905083458 73 133 0.0 0.0 0.00 0.00 0.00 93 1012.0
20260905082957 73 133 0.0 0.0 0.00 0.00 0.00 93 1012.1
20260905082456 73 133 0.0 0.0 0.00 0.00 0.00 93 1012.0
20260905081953 73 133 0.0 0.0 0.00 0.00 0.00 93 1012.0
20260905081452 73 133 0.0 0.0 0.00 0.00 0.00 93 1012.0
20260905080952 73 133 0.0 0.0 0.00 0.00 0.00 93 1011.9
20260905080452 73 133 0.0 0.0 0.00 0.00 0.00 93 1011.9
20260905075951 73 133 0.0 0.0 0.00 0.00 0.00 92 1012.0
20260905074953 73 133 0.0 0.0 0.00 0.00 0.00 93 1011.9
20260905073951 73 133 0.0 0.0 0.00 0.00 0.00 93 1011.9
20260905073452 73 133 0.0 0.0 0.00 0.00 0.00 92 1011.7
20260905072953 73 133 0.0 0.0 0.00 0.00 0.00 92 1011.7
20260905072453 73 133 0.0 0.0 0.00 0.00 0.00 92 1011.7
20260905071951 73 133 0.0 0.0 0.00 0.00 0.00 92 1011.7
20260905071452 73 133 0.0 0.0 0.00 0.00 0.00 92 1011.7
20260905070952 73 133 0.0 0.0 0.00 0.00 0.00 92 1011.4
20260905070452 73 133 0.0 0.0 0.00 0.00 0.00 92 1011.6
20260905065452 73 133 0.0 0.0 0.00 0.00 0.00 91 1011.8
20260905064452 73 133 0.0 0.0 0.00 0.00 0.00 91 1012.1
20260905063952 73 133 0.0 0.0 0.00 0.00 0.00 91 1012.2
20260905063452 73 133 0.0 0.0 0.00 0.00 0.00 91 1012.1
20260905062952 74 133 0.0 0.0 0.00 0.00 0.00 91 1012.1
20260905062451 74 133 0.0 0.0 0.00 0.00 0.00 91 1012.2
20260905061951 74 133 0.0 0.0 0.00 0.00 0.00 91 1012.2
20260905061449 74 133 0.0 0.0 0.00 0.00 0.00 90 1012.3
20260905060949 74 133 0.0 0.0 0.00 0.00 0.00 90 1012.3
20260905060449 74 133 0.0 0.0 0.00 0.00 0.00 90 1012.4
20260905055950 74 133 0.0 0.0 0.00 0.00 0.00 90 1012.4
20260905055449 74 133 0.0 0.0 0.00 0.00 0.00 90 1012.5
20260905054950 74 133 0.0 0.0 0.00 0.00 0.00 90 1012.6
20260905054450 74 133 0.0 0.0 0.00 0.00 0.00 89 1012.7
20260905053949 74 133 0.0 0.0 0.00 0.00 0.00 89 1012.7
20260905053449 74 133 0.0 0.0 0.00 0.00 0.00 89 1012.6
20260905052949 74 133 0.0 0.0 0.00 0.00 0.00 89 1012.6
20260905052448 74 133 0.0 0.0 0.00 0.00 0.00 89 1012.6
20260905051947 74 133 0.0 0.0 0.00 0.00 0.00 88 1012.5
20260905050446 74 133 0.0 0.0 0.00 0.00 0.00 88 1012.6
20260905045947 74 133 0.0 0.0 0.00 0.00 0.00 88 1012.7
20260905045447 74 133 0.0 0.0 0.00 0.00 0.00 87 1012.8
20260905044447 75 133 0.0 0.0 0.00 0.00 0.00 87 1012.8
20260905043948 75 133 0.0 0.0 0.00 0.00 0.00 87 1012.8
20260905043446 75 133 0.0 0.0 0.00 0.00 0.00 87 1012.8
20260905042946 75 133 0.0 0.0 0.00 0.00 0.00 86 1012.8
20260905042444 75 133 0.0 0.0 0.00 0.00 0.00 86 1012.7
20260905041946 75 133 0.0 0.0 0.00 0.00 0.00 87 1012.6
20260905040946 75 133 0.0 0.0 0.00 0.00 0.00 87 1012.6
20260905040445 75 133 0.0 0.0 0.00 0.00 0.00 87 1012.6
20260905035944 75 133 0.0 0.0 0.00 0.00 0.00 87 1012.5
20260905035444 75 133 0.0 0.0 0.00 0.00 0.00 87 1012.6
20260905034943 75 133 0.0 0.0 0.00 0.00 0.00 87 1012.5
20260905034442 76 133 0.0 0.0 0.00 0.00 0.00 86 1012.5
20260905033943 76 133 0.0 0.0 0.00 0.00 0.00 86 1012.5
20260905033444 76 133 0.0 0.0 0.00 0.00 0.00 86 1012.5
20260905032943 76 133 0.0 0.0 0.00 0.00 0.00 86 1012.4
20260905032442 76 133 0.0 0.0 0.00 0.00 0.00 85 1012.6
20260905031943 76 133 0.0 0.0 0.00 0.00 0.00 85 1012.6
20260905031443 76 133 0.0 0.0 0.00 0.00 0.00 85 1012.7
20260905030943 76 133 0.0 0.0 0.00 0.00 0.00 85 1012.9
20260905025943 77 133 0.0 0.0 0.00 0.00 0.00 85 1012.9
20260905025443 77 133 0.0 0.0 0.00 0.00 0.00 84 1013.0
20260905024441 77 133 0.0 0.0 0.00 0.00 0.00 84 1013.1
20260905023940 77 133 0.0 0.0 0.00 0.00 0.00 84 1013.2
20260905023441 77 133 0.0 0.0 0.00 0.00 0.00 84 1013.2
20260905022942 77 133 0.0 0.0 0.00 0.00 0.00 83 1013.3
20260905021938 78 133 0.0 0.0 0.00 0.00 0.00 83 1013.4
20260905021438 78 133 0.0 0.0 0.00 0.00 0.00 83 1013.4
20260905020938 78 133 0.0 0.0 0.00 0.00 0.00 82 1013.4
20260905015939 78 133 0.0 0.0 0.00 0.00 0.00 82 1013.4
20260905015438 78 133 0.0 0.0 0.00 0.00 0.00 82 1013.4
20260905014437 79 133 0.0 0.0 0.00 0.00 0.00 80 1013.4
20260905013936 79 133 0.0 0.0 0.00 0.00 0.00 80 1013.4
20260905013437 79 133 0.0 0.0 0.00 0.00 0.00 80 1013.4
20260905012938 79 133 0.0 0.0 0.00 0.00 0.00 80 1013.3
20260905012437 79 133 0.0 0.0 0.00 0.00 0.00 79 1013.2
20260905011937 80 133 0.0 0.0 0.00 0.00 0.00 78 1013.1
20260905011436 80 133 0.0 0.0 0.00 0.00 0.00 78 1013.2
20260905010934 80 133 0.0 0.0 0.00 0.00 0.00 77 1013.1
20260905010434 80 133 0.0 0.0 0.00 0.00 0.00 76 1013.0
20260905005934 81 133 0.0 0.0 0.00 0.00 0.00 76 1012.9
20260905005434 81 133 0.0 0.0 0.00 0.00 0.00 75 1012.8
20260905004935 81 133 0.0 0.0 0.00 0.00 0.00 75 1012.7
20260905004435 82 133 0.0 0.0 0.00 0.00 0.00 74 1012.7
20260905003934 82 133 0.0 0.0 0.00 0.00 0.00 73 1012.6
20260905003434 83 133 0.0 0.0 0.00 0.00 0.00 72 1012.6
20260905002934 83 133 0.0 0.0 0.00 0.00 0.00 71 1012.6
20260905002434 84 133 0.0 0.0 0.00 0.00 0.00 71 1012.6
20260905001932 84 133 0.0 0.0 0.00 0.00 0.00 70 1012.5
20260905000932 85 133 0.0 0.0 0.00 0.00 0.00 67 1012.4
20260905000433 86 133 0.0 0.0 0.00 0.00 0.00 66 1012.3
20260904235433 87 133 0.0 0.0 0.00 0.00 0.00 63 1012.3
20260904234932 88 133 0.0 0.0 0.00 0.00 0.00 62 1012.2
20260904234432 89 133 0.0 0.0 0.00 0.00 0.00 61 1012.2
20260904233932 91 133 0.0 0.0 0.00 0.00 0.00 59 1012.2
20260904233433 92 133 0.0 0.0 0.00 0.00 0.00 56 1012.1